Temperature
18 18 18 18 18 18 18 17 17 17 17 17 17 17 17 17 17 17 17 17 17 17 17 17 17 17 17 17 17 17 17 17 17 17 17 16 16 16 16 16 16 16 16
18 18 18 17 17 17 17 17 17 17 17 17 17 17 17 17 17 17 17 17 17 17 17 17 17 17 17 17 17 17 17 17 17 17 17 16 16 16 16 16 16 16 16
18 18 18 17 17 17 17 17 17 17 17 17 17 17 17 17 17 17 17 17 17 17 17 17 17 17 17 17 17 17 17 17 17 17 16 16 16 16 16 16 16 16 16
18 18 18 18 17 17 17 17 17 17 17 17 17 17 17 17 17 17 17 17 17 17 17 16 16 16 16 16 16 16 16 16 16 16 16 16 16 16 16 16 16 16 16
18 18 18 17 17 17 17 17 17 17 17 17 17 17 17 17 17 17 17 17 17 16 16 16 16 16 16 16 16 16 16 16 16 16 16 16 16 16 16 16 16 16 16
18 18 18 17 17 17 17 17 17 17 17 17 17 17 17 17 17 17 17 17 16 16 16 16 16 16 16 16 16 16 16 16 16 16 16 16 16 16 16 16 16 16 16
18 17 17 17 17 17 17 17 17 17 16 16 16 17 17 17 17 17 17 17 16 16 16 16 16 16 16 16 16 16 16 15 15 15 15 16 16 16 16 16 16 16 16
17 17 17 17 17 17 17 17 16 16 16 16 16 16 16 17 17 17 17 16 16 16 16 16 16 16 16 16 16 16 15 15 15 15 15 15 15 15 15 15 15 15 16
17 17 17 17 17 17 17 16 16 16 16 16 16 16 16 16 16 17 16 16 16 16 16 16 16 16 16 16 15 15 15 15 15 15 15 15 15 15 15 15 15 15 15
17 17 17 17 17 16 16 16 16 16 16 16 16 16 16 16 16 16 16 16 16 16 16 16 16 16 16 15 15 15 15 15 15 15 15 15 15 15 15 15 15 15 15
17 17 17 16 16 16 16 16 16 16 16 16 16 16 16 16 16 16 16 16 16 16 16 16 16 16 16 15 15 15 15 15 15 15 15 15 15 15 15 15 15 15 15
17 17 16 16 16 16 16 16 16 16 15 16 16 16 16 16 16 16 16 16 16 16 16 16 16 16 16 15 15 15 15 15 15 15 14 14 15 15 15 15 15 15 15
17 17 16 16 16 16 16 16 16 15 15 15 15 15 15 15 15 15 15 15 15 15 15 16 16 15 15 15 15 15 15 15 14 14 14 14 14 14 14 15 15 15 15
17 17 16 16 16 16 16 16 15 15 15 15 15 15 15 15 15 15 15 15 15 15 15 15 15 15 15 15 15 15 14 14 14 14 14 14 14 14 14 14 14 14 14
17 17 16 16 16 16 16 16 16 15 15 15 15 15 15 15 15 15 15 15 15 15 15 15 15 15 15 15 14 14 14 14 14 14 14 14 14 14 14 14 14 14 14
17 17 16 16 16 16 16 16 16 15 15 15 15 15 15 15 15 15 15 14 14 14 14 14 14 14 14 14 14 14 14 14 14 14 13 13 13 13 13 13 13 13 14
17 17 17 16 16 16 16 16 16 15 15 15 15 15 15 15 15 15 14 14 14 14 14 14 14 14 14 14 14 14 14 13 13 13 13 13 13 13 13 13 13 13 13
17 17 17 16 16 16 16 16 16 16 15 15 15 15 15 15 15 14 14 14 14 14 14 14 14 14 14 14 14 14 14 13 13 13 13 13 13 13 13 13 13 13 13
17 17 16 16 16 16 16 16 16 16 16 15 15 15 15 15 15 15 14 14 14 14 14 14 14 14 14 14 13 13 13 13 13 13 13 13 13 13 13 13 13 13 13
17 17 17 16 16 16 16 16 16 16 16 16 15 15 15 15 15 15 14 14 14 14 14 13 14 14 14 14 13 13 13 13 13 13 13 13 13 13 13 13 13 13 13
17 17 17 16 16 16 16 16 16 16 16 16 15 15 15 15 15 14 14 14 14 14 13 13 13 13 14 13 13 13 13 13 13 13 13 13 13 13 13 13 13 13 13
17 17 17 16 16 16 16 16 16 16 16 15 15 15 15 15 15 14 14 14 14 13 13 13 13 13 13 13 13 13 12 12 12 13 12 13 13 13 13 13 13 12 12
17 17 17 17 16 16 16 16 16 15 15 15 15 15 15 15 15 14 14 14 13 13 13 13 13 13 13 13 13 12 12 12 12 12 12 12 12 12 13 12 12 12 12
17 17 16 16 16 16 16 15 15 15 15 15 15 15 15 15 14 14 14 14 13 13 13 13 13 13 13 13 12 12 12 12 12 12 12 12 12 12 12 12 12 12 12
16 16 16 16 15 15 15 15 15 14 14 15 14 14 14 14 14 14 13 13 13 13 13 13 13 12 12 12 12 12 12 11 11 12 12 12 12 12 12 12 12 12 12
16 16 15 15 15 15 15 14 14 14 14 14 14 14 14 13 13 13 13 13 13 13 13 13 12 12 12 12 12 12 12 11 11 11 12 11 12 11 11 12 12 12 12
Wind_Speed
5 6 5 6 7 6 6 4 4 3 2 3 5 6 6 8 10 10 11 15 16 16 16 16 15 15 15 14 14 14 13 13 13 13 13 13 13 13 12 12 11 11 11
7 6 5 5 6 7 7 5 4 3 2 2 3 5 6 8 9 10 11 13 15 16 16 15 15 15 15 15 15 15 14 14 14 14 14 14 14 13 13 13 12 12 12
9 7 4 4 5 6 6 5 4 3 2 2 2 2 4 6 8 9 10 11 12 14 15 15 15 16 15 16 15 15 15 15 15 16 16 15 15 14 14 14 13 13 13
10 7 4 3 5 6 5 4 3 3 2 2 1 1 2 3 6 7 8 9 10 10 12 14 15 15 15 15 15 16 16 16 16 16 16 16 16 15 15 15 14 14 14
10 8 4 4 6 5 3 4 3 3 2 1 1 1 1 2 3 4 5 7 8 9 10 12 14 14 14 14 15 15 15 16 16 17 17 17 17 17 16 16 16 16 16
9 8 4 4 6 4 3 3 3 3 2 1 0 0 1 2 1 2 3 5 7 8 8 8 10 11 12 13 14 14 14 14 15 16 17 17 17 18 18 18 17 17 17
9 7 4 4 4 4 4 4 3 3 1 1 2 3 3 2 1 2 1 2 3 5 7 7 7 7 7 10 12 12 12 12 13 15 16 17 17 18 19 19 19 19 19
9 7 5 5 5 4 4 4 3 3 1 2 3 3 3 4 3 1 1 2 2 3 3 5 6 7 7 6 8 11 11 11 11 12 13 15 16 17 18 19 20 20 20
9 8 7 5 5 4 4 4 4 4 2 1 2 4 3 2 2 3 2 1 1 2 2 4 5 6 7 7 7 8 9 9 10 10 11 12 14 15 16 17 19 20 21
8 9 8 7 5 5 5 4 4 3 4 1 1 1 2 4 3 1 3 3 2 2 2 2 3 5 7 7 7 8 9 8 8 7 7 9 11 13 15 16 17 18 19
5 7 8 6 6 5 5 5 5 4 3 3 2 1 3 3 3 3 1 4 3 3 2 3 3 5 6 7 7 8 8 8 8 7 7 8 8 10 11 13 15 16 18
3 5 7 6 6 5 5 5 5 6 4 4 3 2 3 3 2 3 2 2 2 4 3 2 2 4 6 7 8 9 9 9 8 8 7 7 8 8 9 11 12 14 15
4 5 5 6 5 5 6 5 5 5 5 4 4 2 2 2 3 3 3 1 1 3 3 3 2 4 5 7 8 9 9 10 10 10 9 9 9 9 9 10 11 13 14
6 6 6 6 6 6 6 5 4 4 4 4 4 3 2 1 2 3 4 4 1 3 3 4 3 2 4 7 9 10 9 10 11 12 12 12 12 12 11 11 12 12 13
6 7 7 7 6 6 6 6 4 4 4 4 3 3 2 1 1 2 3 4 4 2 3 4 3 3 3 6 8 10 10 11 12 13 14 14 15 15 15 14 14 14 14
7 8 8 7 7 7 7 6 4 4 5 4 3 3 3 2 1 1 2 2 3 4 3 3 3 3 3 5 8 10 12 13 13 14 15 16 17 17 18 18 18 17 17
8 9 9 8 8 7 7 6 5 6 6 5 4 5 5 4 3 2 2 2 3 4 4 4 3 3 3 4 5 9 12 13 14 16 17 18 18 19 19 20 20 20 19
9 9 9 9 9 8 8 8 7 7 7 7 6 6 6 5 5 4 3 3 3 4 4 5 4 3 5 5 5 5 8 11 12 15 17 17 18 19 20 20 20 21 21
9 8 9 9 9 8 8 8 8 7 8 8 7 7 7 6 6 5 5 5 4 4 4 4 5 4 4 4 4 5 5 5 9 12 14 16 17 18 19 20 21 21 22
10 9 9 9 9 8 8 8 8 8 7 8 8 8 8 8 8 8 6 7 6 5 4 4 5 5 5 5 3 4 5 4 5 8 11 12 14 16 18 19 20 21 22
10 9 9 9 8 8 8 8 8 8 8 8 7 7 8 9 11 9 7 7 6 5 5 5 6 5 5 4 5 4 5 6 5 5 5 6 7 7 12 16 18 20 22
8 8 9 9 9 9 11 13 10 8 8 8 8 7 7 9 11 13 13 12 10 8 8 6 6 7 8 7 6 5 5 4 5 4 3 6 4 7 8 13 18 20 22
8 8 9 9 9 10 13 13 14 9 8 8 8 7 7 8 9 8 10 12 12 14 13 9 9 10 9 8 6 7 7 7 8 6 3 6 6 8 8 15 20 21 22
7 7 7 7 7 9 11 12 12 9 7 8 8 8 8 8 8 7 7 8 9 10 11 10 10 12 11 10 9 9 9 8 7 6 5 6 7 7 9 11 19 21 22
6 6 5 6 6 6 9 10 9 5 6 7 7 7 8 8 10 9 7 8 9 9 12 15 16 16 18 19 13 6 6 6 8 7 5 5 6 7 7 8 14 20 22
6 6 5 5 6 6 7 8 9 5 6 6 6 6 9 9 9 8 6 7 9 10 9 8 9 12 13 15 17 12 10 9 8 7 6 6 6 5 5 6 7 9 12
Wind_Direction
165 168 173 179 187 188 183 186 185 170 161 148 144 139 146 155 169 174 190 197 196 194 191 189 190 191 190 189 189 189 188 186 185 183 181 180 178 176 174 173 172 170 169
160 160 159 167 181 185 183 176 166 153 149 137 126 141 151 160 172 183 194 202 203 202 201 201 200 200 199 198 198 198 197 197 194 193 192 190 189 186 183 183 182 182 182
154 155 155 159 175 174 161 145 131 124 123 113 118 139 158 168 172 184 192 201 208 209 209 210 209 207 206 206 205 206 206 205 204 202 200 199 198 197 195 193 192 192 192
150 146 148 157 159 147 139 128 121 108 99 107 127 169 167 185 184 188 187 197 205 211 217 218 216 214 213 213 213 213 213 213 212 210 208 206 205 205 206 204 202 200 200
147 143 150 151 138 128 133 139 121 124 120 135 180 180 192 198 199 192 191 196 203 208 212 220 220 219 219 219 221 220 218 217 218 216 214 212 211 211 212 212 210 208 208
148 143 145 140 133 123 124 122 120 109 128 160 186 39 264 228 199 189 197 188 195 202 206 212 218 224 226 226 226 227 227 225 224 222 220 220 218 217 216 217 217 216 215
148 142 138 135 134 136 144 137 122 103 85 106 76 13 352 349 242 217 194 173 184 195 198 204 207 214 228 231 230 229 232 233 232 229 227 227 226 223 222 222 222 222 222
154 150 143 142 138 131 127 125 122 117 94 110 124 96 21 354 346 327 228 183 183 174 186 201 205 213 222 225 229 231 234 237 239 237 233 231 231 232 231 229 227 227 226
156 150 148 140 140 138 142 140 134 131 132 40 120 139 138 208 302 335 332 305 210 185 198 197 203 214 215 216 223 230 232 236 241 242 239 238 236 235 236 236 233 232 232
154 153 146 142 141 140 142 144 128 130 129 110 42 72 147 153 142 336 331 332 309 246 244 229 198 200 205 207 215 224 226 230 235 241 246 243 241 240 241 240 241 238 237
154 155 147 141 140 139 139 131 119 118 122 133 131 104 77 71 94 131 275 322 334 307 276 256 232 210 204 202 205 212 215 220 228 238 248 253 252 249 250 250 249 248 245
155 153 147 144 145 141 141 139 133 129 124 117 113 112 126 124 136 137 169 259 292 297 296 281 258 232 217 208 209 211 212 217 224 235 246 256 261 264 263 259 256 255 253
171 173 156 153 150 150 147 139 137 137 136 132 137 133 131 148 154 143 140 178 293 306 325 318 280 253 232 214 217 214 215 220 231 241 248 254 260 265 268 270 266 262 260
182 174 166 160 156 156 153 142 143 153 145 145 150 146 139 152 152 155 156 146 83 331 331 306 310 281 244 222 226 221 221 230 239 245 249 252 257 261 266 270 271 269 266
181 173 170 163 159 157 154 149 150 160 155 159 158 159 158 168 146 159 156 154 153 186 282 289 302 301 283 247 237 224 231 240 245 250 252 254 257 260 262 264 266 266 266
177 169 171 167 165 164 161 156 157 168 166 178 176 168 182 196 174 156 152 156 158 168 221 264 263 278 285 272 253 235 241 248 251 255 257 259 261 262 263 262 262 262 263
173 174 175 172 172 173 170 166 175 175 183 198 199 192 208 204 202 202 170 161 167 165 211 267 266 279 285 281 280 261 259 257 259 262 263 263 264 265 265 264 261 261 260
176 177 176 177 182 183 181 181 191 192 194 204 211 205 218 216 215 219 207 209 209 196 198 247 274 277 268 266 266 268 266 262 259 265 266 265 266 267 267 266 263 261 260
179 180 178 182 187 187 189 194 196 198 203 209 211 211 218 210 221 224 219 221 226 223 203 221 256 258 267 270 278 281 274 270 269 269 268 268 269 270 270 268 265 262 261
180 184 187 189 190 190 194 199 201 205 210 214 214 213 215 210 218 222 225 225 225 229 228 231 252 262 265 271 262 269 284 275 271 274 273 273 272 273 272 272 270 266 263
189 188 189 193 195 195 203 202 207 212 215 221 224 223 223 222 221 219 223 220 217 224 230 236 251 262 264 265 256 250 261 274 273 256 265 271 272 274 277 277 274 269 265
193 188 194 198 201 209 210 205 203 211 213 219 229 235 238 236 237 233 233 226 213 218 227 233 244 246 254 247 249 249 252 266 278 258 235 265 257 265 267 270 270 267 265
192 194 200 199 208 216 214 211 208 206 213 218 223 231 243 242 236 237 244 246 240 234 226 225 238 247 251 245 240 250 245 241 252 248 230 268 262 264 265 268 266 265 264
197 201 206 208 211 222 217 218 219 216 221 225 225 226 233 245 243 234 240 249 250 248 240 234 237 247 248 246 235 240 249 255 260 256 215 254 264 260 266 264 265 264 264
197 202 202 206 210 224 220 220 214 216 232 240 240 238 236 243 252 245 239 250 260 263 258 247 241 245 249 250 244 243 247 248 265 266 215 222 255 261 263 262 263 263 261
197 194 202 208 212 220 217 215 209 213 232 246 252 250 242 243 255 252 240 246 258 264 267 272 261 259 257 258 252 236 235 243 251 262 234 213 246 246 269 259 254 257 260
Height
1555 1557 1559 1560 1561 1562 1564 1565 1566 1567 1568 1569 1570 1571 1571 1572 1573 1573 1574 1575 1575 1576 1577 1577 1578 1578 1579 1580 1581 1582 1582 1583 1584 1585 1585 1586 1587 1588 1588 1589 1590 1591 1591
1555 1556 1558 1559 1560 1562 1563 1564 1566 1567 1568 1569 1569 1570 1571 1572 1572 1573 1574 1574 1575 1576 1576 1577 1577 1578 1578 1579 1580 1581 1582 1582 1583 1584 1585 1586 1587 1587 1588 1589 1589 1590 1591
1554 1556 1557 1558 1560 1561 1562 1564 1565 1566 1567 1568 1569 1570 1570 1571 1572 1572 1573 1573 1574 1575 1575 1576 1576 1577 1577 1578 1579 1579 1580 1581 1582 1583 1584 1585 1586 1586 1587 1588 1589 1590 1590
1554 1555 1557 1558 1559 1560 1562 1563 1564 1565 1566 1567 1568 1569 1569 1570 1571 1572 1572 1573 1573 1574 1574 1575 1575 1575 1576 1576 1577 1578 1578 1579 1580 1581 1582 1583 1584 1585 1586 1587 1588 1588 1589
1552 1554 1556 1557 1558 1559 1561 1562 1563 1564 1565 1566 1567 1568 1569 1569 1570 1571 1571 1572 1572 1573 1573 1573 1574 1574 1574 1575 1575 1576 1576 1577 1578 1579 1580 1581 1582 1583 1584 1585 1586 1587 1588
1551 1553 1554 1556 1557 1558 1559 1561 1562 1563 1564 1565 1566 1567 1567 1568 1569 1570 1570 1571 1571 1571 1572 1572 1572 1572 1573 1573 1573 1574 1574 1575 1575 1576 1577 1578 1580 1581 1582 1583 1584 1585 1586
1550 1552 1553 1554 1556 1557 1558 1559 1560 1561 1562 1564 1565 1565 1566 1567 1568 1569 1569 1570 1570 1570 1571 1571 1571 1571 1571 1571 1571 1571 1572 1572 1573 1573 1574 1575 1577 1578 1579 1580 1581 1582 1583
1549 1550 1552 1553 1555 1555 1556 1558 1559 1560 1561 1562 1563 1564 1565 1567 1566 1567 1568 1568 1569 1569 1569 1569 1570 1569 1569 1570 1570 1570 1570 1570 1570 1571 1571 1572 1573 1574 1575 1577 1578 1579 1580
1547 1549 1550 1552 1553 1554 1555 1556 1558 1559 1560 1561 1562 1563 1564 1564 1565 1566 1566 1567 1568 1568 1568 1568 1568 1568 1568 1568 1568 1568 1568 1568 1568 1568 1569 1569 1570 1571 1572 1573 1574 1575 1576
1546 1548 1549 1550 1552 1553 1554 1555 1557 1558 1559 1560 1561 1562 1563 1563 1564 1565 1566 1566 1566 1567 1567 1567 1567 1566 1566 1566 1566 1566 1566 1566 1566 1566 1566 1566 1566 1567 1568 1569 1570 1571 1572
1545 1546 1548 1549 1550 1552 1553 1554 1555 1557 1558 1559 1559 1560 1561 1562 1563 1563 1564 1565 1565 1565 1565 1565 1565 1565 1565 1565 1564 1564 1564 1564 1564 1564 1563 1563 1563 1563 1564 1564 1565 1566 1567
1543 1545 1546 1548 1549 1550 1551 1553 1554 1555 1556 1557 1558 1559 1560 1560 1561 1562 1562 1563 1563 1564 1563 1563 1563 1563 1563 1563 1563 1562 1562 1562 1561 1561 1561 1561 1560 1560 1560 1560 1561 1561 1562
1541 1543 1545 1546 1547 1549 1550 1551 1552 1553 1555 1556 1557 1558 1558 1559 1560 1561 1561 1561 1562 1562 1562 1561 1561 1561 1561 1561 1561 1561 1560 1559 1559 1558 1558 1557 1557 1556 1556 1556 1556 1557 1557
1540 1542 1543 1545 1546 1547 1548 1549 1550 1551 1553 1554 1555 1556 1557 1557 1558 1559 1560 1560 1560 1560 1559 1559 1559 1559 1559 1559 1559 1558 1558 1557 1556 1555 1554 1553 1553 1552 1552 1552 1552 1552 1552
1538 1540 1541 1543 1544 1545 1546 1547 1548 1549 1551 1552 1553 1554 1555 1556 1556 1557 1557 1558 1559 1558 1557 1557 1557 1557 1557 1557 1556 1556 1555 1554 1553 1552 1551 1550 1549 1548 1548 1548 1548 1548 1548
1535 1537 1539 1540 1542 1543 1544 1545 1546 1548 1549 1550 1551 1552 1553 1554 1554 1555 1555 1556 1556 1556 1555 1555 1555 1554 1554 1554 1553 1553 1552 1551 1550 1549 1547 1546 1545 1545 1544 1544 1543 1543 1543
1532 1534 1536 1538 1540 1541 1542 1543 1545 1546 1547 1548 1549 1550 1551 1552 1552 1553 1553 1553 1553 1553 1552 1552 1552 1551 1551 1550 1550 1549 1548 1547 1546 1545 1544 1543 1542 1541 1540 1539 1539 1538 1538
1529 1531 1533 1535 1537 1538 1540 1541 1542 1544 1545 1546 1547 1548 1548 1549 1549 1550 1550 1550 1550 1550 1550 1549 1548 1548 1547 1547 1546 1545 1544 1543 1542 1541 1540 1539 1538 1537 1536 1535 1534 1534 1533
1526 1528 1530 1532 1534 1535 1537 1538 1540 1541 1542 1543 1544 1545 1545 1546 1546 1547 1547 1547 1547 1547 1546 1545 1544 1544 1543 1543 1542 1541 1540 1538 1538 1536 1535 1534 1533 1532 1531 1530 1529 1529 1528
1522 1525 1527 1529 1531 1532 1534 1535 1537 1538 1539 1540 1541 1541 1542 1542 1543 1543 1543 1543 1543 1543 1542 1541 1540 1539 1538 1538 1537 1535 1534 1533 1532 1531 1530 1529 1528 1527 1526 1524 1524 1523 1522
1519 1521 1523 1525 1527 1528 1530 1532 1533 1534 1535 1536 1537 1537 1538 1538 1539 1539 1539 1538 1538 1538 1537 1536 1535 1534 1533 1533 1532 1530 1528 1527 1526 1525 1523 1522 1521 1520 1519 1518 1517 1516 1516
1516 1517 1519 1521 1522 1524 1526 1527 1529 1530 1531 1532 1532 1533 1533 1534 1534 1534 1534 1534 1534 1533 1532 1531 1530 1528 1527 1527 1526 1525 1523 1521 1518 1519 1517 1515 1515 1512 1512 1511 1510 1509 1509
1512 1512 1514 1516 1518 1520 1521 1523 1524 1525 1526 1527 1527 1528 1528 1528 1528 1528 1528 1528 1527 1527 1526 1526 1524 1522 1522 1521 1520 1519 1517 1515 1512 1512 1511 1506 1507 1505 1504 1503 1502 1502 1501
1507 1509 1510 1512 1513 1515 1517 1518 1519 1520 1521 1521 1521 1522 1522 1522 1522 1522 1522 1521 1521 1520 1520 1519 1518 1516 1516 1515 1514 1512 1510 1508 1505 1505 1504 1500 1498 1497 1496 1495 1494 1493 1493
1502 1504 1505 1507 1508 1509 1511 1513 1514 1514 1515 1515 1515 1516 1516 1516 1516 1516 1515 1514 1513 1513 1513 1512 1511 1509 1508 1508 1507 1505 1502 1500 1496 1495 1496 1493 1491 1489 1487 1486 1486 1485 1485
1497 1499 1500 1502 1503 1504 1505 1507 1508 1508 1508 1508 1509 1509 1509 1509 1509 1509 1508 1507 1505 1504 1504 1503 1502 1501 1500 1499 1498 1497 1494 1492 1489 1486 1487 1486 1483 1482 1478 1477 1477 1477 1476